Flag for Canada Weather past 2 weeks in Kuujjuaq, Quebec, Canada

Now
-29 °F

Passing clouds.


Feels Like: -29 °F
Forecast: -29 / -13 °F
Wind: No wind

Location: Kuujjuaq

Current Time: Mar 3, 2015 at 6:41:39 AM

Latest Report: Mar 3, 2015 at 6:00 AM


Visibility: 15 mi

Pressure: 29.98 "Hg

Humidity: 67%

Dew point: -36 °F

Location of KuujjuaqLocation

Historic Weather in Kuujjuaq — Graph

°F

Kuujjuaq temperature yesterday

Maximum temperature yesterday: 12 °F (at 10:00 AM)
Minimum temperature yesterday: -18 °F (at 10:00 PM)
Average temperature yesterday: -2 °F

Past Weeks' High & Low Weather Summary

 TemperatureHumidityPressure
High12 °F (Mar 2, 10:00 AM)85% (Mar 1, 9:00 PM)30.22 "Hg (Mar 1, 9:00 PM)
Low-35 °F (Feb 16, 6:00 AM)47% (Feb 27, 3:00 PM)29.55 "Hg (Mar 2, 7:00 AM)
Average-17 °F67%29.91 "Hg
* Reported Feb 16 5:00 AM — Mar 3 5:00 AM, Kuujjuaq, Weather by CustomWeather, © 2015

Note: Actual official high and low records may vary slightly from our data, if they occured in-between our weather recording intervals... More about our weather records

Advertising

Kuujjuaq weather history for previous 24 hours

 ConditionsComfort  
Time TempWeatherWind HumidityBarometerVisibility
5:00 AM
Tue, Mar 3
-29 °FPassing clouds.7 mph67%29.98 "Hg15 mi
4:00 AM-27 °FPassing clouds.7 mph67%29.97 "Hg15 mi
3:00 AM-27 °FPassing clouds.8 mph67%29.96 "Hg15 mi
2:00 AM-26 °FPassing clouds.8 mph67%29.95 "Hg15 mi
1:00 AM-24 °FPassing clouds.8 mph61%29.94 "Hg15 mi
12:00 AM-20 °FLight snow. Passing clouds.8 mph62%29.94 "Hg15 mi
11:00 PM
Mon, Mar 2
-18 °FLight snow. Mostly cloudy.9 mph56%29.93 "Hg8 mi
10:00 PM-18 °FLight snow. Mostly cloudy.9 mph62%29.91 "Hg8 mi
9:00 PM-17 °FLight snow. Mostly cloudy.14 mph63%29.89 "Hg12 mi
8:00 PM-17 °FLight snow. Overcast.12 mph63%29.89 "Hg6 mi
7:00 PM-15 °FLight snow. Partly cloudy.12 mph63%29.86 "Hg4 mi
6:00 PM-15 °FLight snow. Partly cloudy.8 mph69%29.84 "Hg6 mi
5:00 PM-13 °FLight snow. Overcast.12 mph69%29.80 "Hg3 mi
4:00 PM-11 °FLight snow. Mostly cloudy.15 mph63%29.77 "Hg4 mi
3:00 PM-9 °FLight snow. Partly sunny.17 mph64%29.72 "Hg8 mi
2:00 PM-4 °FBroken clouds.12 mph59%29.68 "Hg15 mi
1:00 PM-2 °FBroken clouds.16 mph59%29.63 "Hg15 mi
12:51 PM-2 °FBroken clouds.16 mph65%29.62 "Hg15 mi
12:00 PM1 °FLight snow. Broken clouds.14 mph65%29.60 "Hg15 mi
11:00 AM7 °FLight snow. Broken clouds.15 mph66%29.58 "Hg15 mi
10:00 AM12 °FLight snow. Broken clouds.8 mph73%29.57 "Hg15 mi
9:00 AM9 °FLight snow. Partly sunny.5 mph78%29.56 "Hg10 mi
8:00 AM7 °FLight snow. Broken clouds.5 mph85%29.56 "Hg6 mi
7:00 AM5 °FLight snow. Partly sunny.3 mph85%29.55 "Hg6 mi
6:00 AM5 °FLight snow. Overcast.5 mph85%29.56 "Hg4 mi
Weather by CustomWeather, © 2015

See weather overviewHow to use our weather pages